Location: Capelle
(50.3413°N, 1.9974°E)
Time: 09:36:04
(UTC+00:00)

SL-16 R/B - Pass Details

Date: 12 January 2026
Orbit: 841 x 846 km, 71.0° (Epoch: 19 February)

Event Time Altitude Azimuth Distance (km) Brightness Sun altitude
Rises 17:46:45 0° 222° (SW) 3,392 6.4 -14.3°
Reaches altitude 10° 17:49:14 10° 227° (SW) 2,460 5.6 -14.7°
Maximum altitude 17:54:46 55° 305° (NW) 1,010 2.8 -15.6°
Drops below altitude 10° 18:00:21 10° 23° (NNE) 2,471 4.3 -16.4°
Enters shadow 18:00:27 10° 24° (NNE) 2,507 4.3 -16.4°
